Terug naar catalogus

STARLINK-4707

ActiefCommunicatieVLEO
NORAD 53721·PAYLOAD·🇺🇸 United States

Gelanceerd Sep 5, 2022 vanaf Cape Canaveral Space Force Station

Loading…

Volgende Passages (komende 24 uur)

TLE

VersSource: CelesTrak SupGP

Epoch: Sep 14, 2026, 20:46 UTC

1 53721C 22107X   26257.86576389 -.00013339  00000+0 -39415-3 0  2576
2 53721  53.1575 111.8258 0001204  90.9935 133.2253 15.34394262    13

Volg STARLINK-4707 in realtime met AllMySat

Download on the App Store